Location: Hebron
(33.0265°N, 96.8636°W)
Time: 08:00:47
(UTC+00:00)

Meteor 1-25 Rocket - Pass Details

Date: 08 December 2021
Orbit: 838 x 890 km, 81.2° (Epoch: 18 January)

Event Time Altitude Azimuth Distance (km) Brightness Sun altitude
Rises 12:31:11 0° 195° (SSW) 3,413 7.4 -9.9°
Reaches altitude 10° 12:33:38 10° 199° (SSW) 2,473 6.7 -9.4°
Maximum altitude 12:39:10 62° 279° (W) 946 4.2 -8.3°
Drops below altitude 10° 12:44:41 10° 0° (N) 2,462 6.4 -7.2°
Sets 12:47:08 0° 4° (N) 3,396 7.2 -6.8°
